Date String (YYYY-MM-DD hh:mm:ss) UTC,Instrument flags,absolute air pressure of the measurement (hPa),sample flow rate (lpm),inlet stack bypass flow (lpm),air temperature of the measurement (°C),ambient temperature measured by the external sensor (°C),aerosol sample conditioner tube jacket temperature (°C),OPC LED temperature (°C),internal box temperature (°C),relative humidity of the measurement (%),span deviation,mass concentration of particles derived from Lorenz-Mie calculation of OPC scattering (μg/m³),mass concentration of particles derived from Lorenz-Mie calculation of OPC scattering (μg/m³),mass concentration of particles derived from Lorenz-Mie calculation of OPC scattering (μg/m³)
DateTimeUTC,F1_M11,P_M11,Q1_M11,Q2_M11,T1_M11,T2_M11,T3_M11,T4_M11,T5_M11,U1_M11,ZSPAN_M11,X0_M11,X2_M11,X1_M11
2024-05-18 13:00:00,SystemResetWarning,0828.4,5.00,000.00,025.4,024.9,000.0,033.5,027.2,017.3,0000.0,0014.94,0005.37,0003.53
2024-05-18 13:01:00,SystemResetWarning,0828.4,5.00,000.00,025.5,024.9,000.0,033.5,027.3,017.4,0000.0,0014.82,0005.35,0003.52
2024-05-18 13:02:00,SystemResetWarning,0828.4,5.00,000.00,025.5,024.9,000.0,033.5,027.3,017.8,0000.0,0014.71,0005.35,0003.51
2024-05-18 13:03:00,SystemResetWarning,0828.4,5.00,000.00,025.5,025.0,000.0,033.6,027.3,017.4,0000.0,0014.96,0005.33,0003.50
2024-05-18 13:04:00,SystemResetWarning,0828.4,5.00,000.00,025.6,025.0,000.0,033.6,027.4,017.6,0000.0,0014.07,0005.30,0003.50
2024-05-18 13:05:00,SystemResetWarning,0828.5,5.00,000.00,025.6,025.0,000.0,033.6,027.4,017.8,0000.0,0014.28,0005.29,0003.49
2024-05-18 13:06:00,SystemResetWarning,0828.5,4.99,000.00,025.6,025.0,000.0,033.6,027.4,017.2,0000.0,0013.37,0005.23,0003.47
2024-05-18 13:07:00,SystemResetWarning,0828.5,4.98,000.00,025.5,023.7,000.0,033.7,026.7,017.5,0000.0,0013.21,0005.15,0003.47
2024-05-18 13:08:00,SystemResetWarning,0828.4,5.00,000.00,025.0,021.7,000.0,033.8,025.6,018.0,0000.0,0013.82,0005.14,0003.47
2024-05-18 13:09:00,SystemResetWarning,0828.4,5.02,000.00,024.7,021.7,000.0,033.7,025.5,018.5,0000.0,0014.29,0005.15,0003.47
2024-05-18 13:10:00,SystemResetWarning,0828.5,5.00,000.00,024.6,022.0,000.0,033.5,025.6,018.6,0000.0,0015.42,0005.22,0003.46
2024-05-18 13:11:00,SystemResetWarning,0828.6,4.99,000.00,024.6,022.4,000.0,033.4,025.9,018.8,0000.0,0015.12,0005.22,0003.45
2024-05-18 13:12:00,SystemResetWarning,0828.6,4.99,000.00,024.6,022.8,000.0,033.3,026.0,019.3,0000.0,0015.57,0005.30,0003.46
2024-05-18 13:13:00,SystemResetWarning,0828.6,5.01,000.00,024.6,023.0,000.0,033.2,026.2,019.6,0000.0,0015.55,0005.29,0003.49
2024-05-18 13:14:00,SystemResetWarning,0828.6,5.01,000.00,024.6,023.3,000.0,033.2,026.3,019.2,0000.0,0015.35,0005.29,0003.50
2024-05-18 13:15:00,SystemResetWarning,0828.5,5.00,000.00,024.7,023.5,000.0,033.1,026.4,019.6,0000.0,0015.92,0005.32,0003.53
2024-05-18 13:16:00,SystemResetWarning,0828.6,5.00,000.00,024.7,023.7,000.0,033.1,026.5,019.9,0000.0,0015.56,0005.29,0003.54
2024-05-18 13:17:00,SystemResetWarning,0828.5,5.00,000.00,024.8,023.8,000.0,033.1,026.5,019.8,0000.0,0015.99,0005.29,0003.57
2024-05-18 13:18:00,SystemResetWarning,0828.6,5.00,000.00,024.8,024.0,000.0,033.1,026.6,019.9,0000.0,0016.08,0005.36,0003.59
2024-05-18 13:19:00,SystemResetWarning,0828.6,4.99,000.00,024.9,024.1,000.0,033.1,026.6,020.2,0000.0,0015.42,0005.35,0003.61
2024-05-18 13:20:00,SystemResetWarning,0828.6,4.99,000.00,024.9,024.2,000.0,033.1,026.7,020.0,0000.0,0014.99,0005.35,0003.62
2024-05-18 13:21:00,SystemResetWarning,0828.7,5.00,000.00,024.9,024.3,000.0,033.1,026.7,019.4,0000.0,0013.68,0005.28,0003.62
2024-05-18 13:22:00,SystemResetWarning,0828.7,4.99,000.00,025.0,024.3,000.0,033.1,026.8,019.7,0000.0,0013.15,0005.26,0003.62
2024-05-18 13:23:00,SystemResetWarning,0828.7,5.00,000.00,025.0,024.4,000.0,033.2,026.8,019.6,0000.0,0013.19,0005.24,0003.63
2024-05-18 13:24:00,SystemResetWarning,0828.7,5.00,000.00,025.1,024.5,000.0,033.2,026.9,019.3,0000.0,0013.79,0005.24,0003.63
2024-05-18 13:25:00,SystemResetWarning,0828.6,5.01,000.00,025.1,024.5,000.0,033.2,026.9,019.4,0000.0,0014.30,0005.29,0003.64
2024-05-18 13:26:00,SystemResetWarning,0828.7,5.00,000.00,025.1,024.6,000.0,033.2,027.0,019.6,0000.0,0014.11,0005.31,0003.65
2024-05-18 13:27:00,SystemResetWarning,0828.8,5.00,000.00,025.2,024.6,000.0,033.2,027.0,019.9,0000.0,0014.31,0005.40,0003.67
2024-05-18 13:28:00,SystemResetWarning,0828.8,4.99,000.00,025.2,024.6,000.0,033.3,027.0,020.6,0000.0,0013.80,0005.44,0003.68
2024-05-18 13:29:00,SystemResetWarning,0828.9,4.99,000.00,025.3,024.7,000.0,033.3,027.1,020.8,0000.0,0014.11,0005.42,0003.69
2024-05-18 13:30:00,SystemResetWarning,0828.8,5.01,000.00,025.3,024.7,000.0,033.3,027.1,020.9,0000.0,0014.64,0005.41,0003.70
2024-05-18 13:31:00,SystemResetWarning,0828.8,5.01,000.00,025.3,024.8,000.0,033.3,027.1,021.4,0000.0,0015.31,0005.48,0003.72
2024-05-18 13:32:00,SystemResetWarning,0828.8,5.00,000.00,025.4,024.8,000.0,033.4,027.2,021.4,0000.0,0016.52,0005.50,0003.74
2024-05-18 13:33:00,SystemResetWarning,0828.8,5.00,000.00,025.4,024.8,000.0,033.4,027.2,021.5,0000.0,0017.40,0005.55,0003.74
2024-05-18 13:34:00,SystemResetWarning,0828.8,5.00,000.00,025.4,024.9,000.0,033.4,027.2,021.4,0000.0,0019.67,0005.55,0003.73
2024-05-18 13:35:00,SystemResetWarning,0828.9,5.00,000.00,025.4,024.9,000.0,033.5,027.3,021.2,0000.0,0019.85,0005.55,0003.70
2024-05-18 13:36:00,SystemResetWarning,0829.0,4.99,000.00,025.5,024.9,000.0,033.5,027.3,021.6,0000.0,0019.50,0005.56,0003.66
2024-05-18 13:37:00,SystemResetWarning,0829.0,5.00,000.00,025.5,024.9,000.0,033.5,027.3,021.9,0000.0,0019.85,0005.58,0003.63
2024-05-18 13:38:00,SystemResetWarning,0828.9,5.00,000.00,025.5,025.0,000.0,033.5,027.3,021.8,0000.0,0022.53,0005.61,0003.60
2024-05-18 13:39:00,SystemResetWarning,0829.0,5.00,000.00,025.6,025.0,000.0,033.6,027.4,022.2,0000.0,0023.52,0005.66,0003.56
2024-05-18 13:40:00,SystemResetWarning,0829.0,5.00,000.00,025.6,025.0,000.0,033.6,027.4,022.2,0000.0,0023.41,0005.72,0003.52
2024-05-18 13:41:00,SystemResetWarning,0829.1,5.00,000.00,025.6,025.0,000.0,033.6,027.4,022.3,0000.0,0023.08,0005.73,0003.48
2024-05-18 13:42:00,SystemResetWarning,0829.1,4.99,000.00,025.6,025.0,000.0,033.6,027.4,022.5,0000.0,0024.42,0005.68,0003.44
2024-05-18 13:43:00,SystemResetWarning,0829.2,5.00,000.00,025.7,025.1,000.0,033.7,027.5,022.8,0000.0,0024.32,0005.63,0003.40
2024-05-18 13:44:00,SystemResetWarning,0829.2,5.00,000.00,025.7,025.1,000.0,033.7,027.5,022.9,0000.0,0025.07,0005.60,0003.37
2024-05-18 13:45:00,SystemResetWarning,0829.4,5.00,000.00,025.7,025.1,000.0,033.7,027.5,022.9,0000.0,0023.10,0005.63,0003.35
2024-05-18 13:46:00,SystemResetWarning,0829.3,5.00,000.00,025.7,025.1,000.0,033.8,027.5,022.8,0000.0,0024.27,0005.68,0003.35
2024-05-18 13:47:00,SystemResetWarning,0829.3,5.00,000.00,025.7,025.1,000.0,033.8,027.5,022.9,0000.0,0025.04,0005.66,0003.36
2024-05-18 13:48:00,SystemResetWarning,0829.3,5.00,000.00,025.7,025.1,000.0,033.8,027.5,023.2,0000.0,0025.72,0005.69,0003.35
2024-05-18 13:49:00,SystemResetWarning,0829.4,5.00,000.00,025.7,025.1,000.0,033.8,027.5,023.4,0000.0,0026.07,0005.71,0003.35
2024-05-18 13:50:00,SystemResetWarning,0829.4,5.00,000.00,025.7,025.1,000.0,033.8,027.5,023.5,0000.0,0026.87,0005.68,0003.33
2024-05-18 13:51:00,SystemResetWarning,0829.5,5.01,000.00,025.7,025.1,000.0,033.9,027.6,023.7,0000.0,0028.43,0005.69,0003.32
2024-05-18 13:52:00,SystemResetWarning,0829.6,5.00,000.00,025.8,025.1,000.0,033.9,027.5,023.8,0000.0,0028.89,0005.69,0003.32
2024-05-18 13:53:00,SystemResetWarning,0829.7,5.00,000.00,025.8,025.1,000.0,033.9,027.5,023.8,0000.0,0028.56,0005.74,0003.32
2024-05-18 13:54:00,SystemResetWarning,0829.7,5.00,000.00,025.8,025.1,000.0,033.9,027.5,023.5,0000.0,0028.20,0005.80,0003.32
2024-05-18 13:55:00,SystemResetWarning,0829.7,4.99,000.00,025.8,025.1,000.0,034.0,027.6,022.5,0000.0,0027.91,0005.86,0003.33
2024-05-18 13:56:00,SystemResetWarning,0829.7,5.00,000.00,025.8,025.1,000.0,034.0,027.6,022.5,0000.0,0028.12,0005.84,0003.34
2024-05-18 13:57:00,SystemResetWarning,0829.7,5.00,000.00,025.8,025.1,000.0,034.0,027.6,022.2,0000.0,0028.66,0005.86,0003.35
2024-05-18 13:58:00,SystemResetWarning,0829.7,5.00,000.00,025.8,025.1,000.0,034.0,027.6,022.1,0000.0,0028.07,0005.85,0003.34
2024-05-18 13:59:00,SystemResetWarning,0829.7,5.00,000.00,025.8,025.1,000.0,034.0,027.6,022.5,0000.0,0030.07,0005.85,0003.34
